sat.trackr.live / text

‹ back to catalog

STARLINK-3891

NORAD 52650 · 2022-052BE

PAYLOAD ACTIVE UNKNOWN

§ Identity

Operator
Country
US
Launch date
2022-05-14
Launch site
AFETR
Launch vehicle
Mass (kg)
RCS (m²)

Purposes: comms

External: N2YO · Heavens-Above · Gunter

§ Orbital elements

Epoch: 2026-09-19T22:38:02.728032Z

Period
93.85 min
Inclination
53.1615°
Eccentricity
0.0001092
Mean motion
15.34383292 rev/d
Perigee alt
462.0 km
Apogee alt
463.5 km
Semi-major
6,840.9 km
B*
7.7730e-6
RAAN
86.0015°
Arg perigee
101.4850°
Mean anomaly
258.6275°
Rev number
24,075

§ Raw data

STARLINK-38911 52650U 22052BE  26262.94308713 -.00000114  00000+0  77730-5 0  99972 52650  53.1615  86.0015 0001092 101.4850 258.6275 15.34383292240755

JSON: /api/v1/satellites/52650 · /tle

For live sub-satellite position, see the globe view (requires WebGL).

§ Visibility from observer

Set your observer location to see the next 7 days of passes ≥ 10°. The values pass through the URL so the page stays shareable.

No JS? Fill the form by hand. The geolocation button needs JavaScript.